AO-07 1 07530U 74089B 26175.96527499 -.00000036 00000-0 64341-4 0 9997 2 07530 101.9899 189.2930 0012636 115.7171 315.2652 12.53698160361495 UO-11 1 14781U 84021B 26174.86625253 .00001092 00000-0 11662-3 0 9994 2 14781 97.8059 140.3663 0008218 151.7331 208.4334 14.90797521258121 LO-19 1 20442U 90005G 26175.99605583 .00000102 00000-0 53001-4 0 9998 2 20442 98.8847 198.0168 0011577 177.8494 182.2741 14.34125258903510 AO-27 1 22825U 93061C 26176.18096079 .00000079 00000-0 46862-4 0 9996 2 22825 98.6877 243.5916 0009517 79.1910 281.0343 14.30944177708146 FO-29 1 24278U 96046B 26176.14811662 -.00000016 00000-0 17093-4 0 9991 2 24278 98.5234 23.9293 0350915 75.8351 288.1508 13.53274732474246 GO-32 1 25397U 98043D 26174.94820125 .00000038 00000-0 36579-4 0 9996 2 25397 99.0070 167.8775 0001390 150.1095 210.0162 14.24429485452295 ISS 1 25544U 98067A 26176.18758125 .00009470 00000-0 17725-3 0 9994 2 25544 51.6326 260.4913 0004409 228.8642 131.1966 15.49415960572992 NO-44 1 26931U 01043C 26176.19152737 .00000086 00000-0 62978-4 0 9996 2 26931 67.0494 223.5692 0006049 265.0177 95.0235 14.31958480291592 SO-50 1 27607U 02058C 26176.17970424 .00000928 00000-0 12668-3 0 9998 2 27607 64.5519 104.2569 0075079 260.9817 98.2786 14.83062534265641 CO-55 1 27844U 03031E 26175.97519230 .00000261 00000-0 13189-3 0 9993 2 27844 98.6736 184.4362 0010007 156.0422 204.1225 14.24339992192781 RS-22 1 27939U 03042A 26176.23465326 .00000817 00000-0 13401-3 0 9990 2 27939 98.3476 0.8208 0010000 240.8202 230.4835 14.73478873216732 CO-65 1 32785U 08021C 26176.20348299 .00005562 00000-0 35067-3 0 9997 2 32785 97.8276 157.7888 0008998 15.0140 345.1353 15.09522910986400 CO-66 1 32791U 08021J 26175.96907043 .00019623 00000-0 61750-3 0 9995 2 32791 97.7519 174.2392 0000309 241.1908 118.9302 15.32990296988484 RS-30 1 32953U 08025A 26176.14626787 .00000049 00000-0 28088-3 0 9992 2 32953 82.5048 350.4885 0018612 295.6319 64.2838 12.43179858820680 SRMSAT 1 37841U 11058D 26176.22718632 .00000368 00000-0 55867-4 0 9993 2 37841 19.9735 10.8048 0011711 292.6715 223.4173 14.11577108758954 ZACUBE-1 1 39417U 13066B 26176.13923660 .00003058 00000-0 23876-3 0 9997 2 39417 97.8051 138.5170 0041882 220.5392 139.2711 15.01227073681925 Delfi-N3xt 1 39428U 13066N 26176.00834786 .00005849 00000-0 50967-3 0 9996 2 39428 97.8341 96.3125 0074208 179.1884 180.9470 14.95151659675794 GOMX-1 1 39430U 13066Q 26176.15279361 .00001495 00000-0 22914-3 0 9991 2 39430 97.6486 16.1126 0129890 52.2580 309.0313 14.69483868671087 LO-74 1 39440U 13066AA 26175.16357250 .00003255 00000-0 30265-3 0 9990 2 39440 97.8904 124.1710 0057788 6.1369 354.0545 14.93813506678035 AO-73 1 39444U 13066AE 26174.48649236 .00004811 00000-0 29949-3 0 9992 2 39444 97.8270 146.0634 0036321 179.4025 180.7253 15.09547873680612 DTUSAT-2 1 40030U 14033W 26175.96521767 .00006900 00000-0 37215-3 0 9998 2 40030 98.0866 174.1863 0007394 195.7639 164.3362 15.15103822653860 LILACSAT-2 1 40908U 15049K 26176.14048534 .00020939 00000-0 35297-3 0 9993 2 40908 97.4643 213.2849 0006210 209.2685 150.8220 15.51686131596988 Horyu-4 1 41340U 16012D 26175.92351499 .00887715 38476-3 12685-2 0 9996 2 41340 30.9835 21.9003 0008452 319.1648 40.8382 16.04340254572051 Lapan A3 1 41603U 16040E 26176.15392157 .00003749 00000-0 11926-3 0 9995 2 41603 97.1489 172.0377 0009873 358.2361 1.8845 15.33150900556038 CAS-2T 1 41847U 16066G 26176.13624823 .00001565 00000-0 22586-3 0 9997 2 41847 98.3820 251.7817 0342890 105.4461 258.4874 14.44718370505944 TechnoSat 1 42829U 17042E 26176.16131604 .00003185 00000-0 22772-3 0 9993 2 42829 97.4295 333.5164 0019336 69.4707 290.8593 15.05006221487909 AO-91 1 43017U 17073E 26176.14540635 .00007866 00000-0 34436-3 0 9993 2 43017 97.4699 43.1975 0148683 301.5265 57.1515 15.12819327466595 S-Net D 1 43186U 18014G 26174.99334955 .00004138 00000-0 21439-3 0 9991 2 43186 97.5358 79.7411 0008219 8.7119 351.4256 15.16727237459797 S-Net B 1 43187U 18014H 26175.20285968 .00004541 00000-0 23506-3 0 9991 2 43187 97.5364 79.9363 0008628 2.2761 357.8510 15.16699503459820 S-Net A 1 43188U 18014J 26175.19010870 .00004081 00000-0 21139-3 0 9997 2 43188 97.5375 80.1335 0008546 3.4432 356.6858 15.16737154459820 S-Net C 1 43189U 18014K 26175.20677126 .00004585 00000-0 23732-3 0 9993 2 43189 97.5391 80.2262 0009636 354.0800 6.0317 15.16691363458370 Ten-Koh 1 43677U 18084G 26176.04633230 .00001425 00000-0 11088-3 0 9994 2 43677 98.0760 8.7415 0011354 91.5849 268.6675 15.02966269417349 PO-101 1 43678U 18084H 26176.17232848 .00001908 00000-0 15648-3 0 9991 2 43678 98.1205 12.7285 0012976 145.0195 215.1883 15.00483056417417 QO-100 1 43700U 18090A 26176.17360068 .00000154 00000-0 00000 0 0 9994 2 43700 0.0179 335.8396 0002159 153.6353 232.1349 1.00273828 27759 MinXSS-2 1 43758U 18099A 26176.17654958 .00044561 00000-0 86792-3 0 9996 2 43758 97.4537 252.6971 0007305 224.7888 135.2772 15.47398498415364 AO-95 1 43770U 18099N 26176.13902103 .00013017 00000-0 49535-3 0 9990 2 43770 97.4384 236.3562 0007228 326.7898 33.2886 15.26862763414439 SNUSat 2 1 43782U 18099AA 26176.09180144 .00009459 00000-0 41744-3 0 9990 2 43782 97.4058 229.3538 0008556 265.4499 94.5760 15.21943939414235 SnugLite 1 43784U 18099AC 26175.87496758 .00012351 00000-0 46391-3 0 9996 2 43784 97.3869 230.0794 0001520 231.9015 128.2087 15.27326303414496 ITASat 1 1 43786U 18099AE 26176.12374922 .00007218 00000-0 34610-3 0 9992 2 43786 97.4030 227.4770 0011297 331.0852 28.9756 15.19145162414117 EAGLET 1 1 43790U 18099AJ 26176.12157410 .00003942 00000-0 22673-3 0 9994 2 43790 97.4229 225.5800 0009927 325.1578 34.9002 15.12992961413537 ESEO 1 43792U 18099AL 26176.02964957 .00001351 00000-0 10116-3 0 9998 2 43792 97.3976 213.0825 0010400 312.8978 47.1374 15.04272002412985 JO-97 1 43803U 18099AX 26176.12045785 .00020902 00000-0 63898-3 0 9999 2 43803 97.4134 238.9829 0004923 226.5613 133.5221 15.33882017414848 Suomi 100 1 43804U 18099AY 26176.12765316 .00015183 00000-0 54767-3 0 9999 2 43804 97.4190 236.4918 0008650 245.7808 114.2528 15.28581723414630 ISAT 1 43879U 18111D 26174.55295329 .00082802 00000-0 79540-3 0 9991 2 43879 97.5872 110.2675 0002605 165.3365 194.7971 15.66333302412169 UWE-4 1 43880U 18111E 26175.07461358 .00030603 00000-0 61683-3 0 9999 2 43880 97.5841 103.7842 0004486 307.8238 52.2604 15.46500339411840 Sparrow 1 43881U 18111F 26174.35634660 .00149766 00000-0 94570-3 0 9990 2 43881 97.6095 115.7899 0004618 124.5126 235.6575 15.76173004412343 Prox-1 1 44339U 19036A 26175.95600762 .00015418 00000-0 15002-2 0 9997 2 44339 23.9955 62.3473 0005816 125.1076 234.9969 14.90782401374636 Taurus 1 1 44530U 19059C 26176.19514946 .00004479 00000-0 71923-3 0 9990 2 44530 98.6419 341.5202 0007250 287.0067 73.0344 14.72162050359822 TO-108 1 44881U 19093C 26176.18954701 .00000268 00000-0 36202-4 0 9997 2 44881 97.7532 248.2269 0014996 63.1588 297.1159 14.86529248352602 RS-44 1 44909U 19096E 26175.97968001 .00000031 00000-0 72192-4 0 9991 2 44909 82.5224 334.5259 0218424 126.0184 236.1380 12.79748967303341 SALSAT 1 46495U 20068K 26175.99443822 .00007962 00000-0 27767-3 0 9992 2 46495 97.8853 179.5347 0007812 274.8629 85.1718 15.29898993316555 CSS (TIANHE-1) 1 48274U 21035A 26176.16640184 .00026175 00000-0 30377-3 0 9992 2 48274 41.4688 273.4315 0007806 146.0045 214.1295 15.61138163294413 CUTE 1 49263U 21088D 26175.21813702 .00266732 29870-4 67918-3 0 9998 2 49263 97.4172 275.2045 0007667 220.2965 139.7743 15.95360523263670 TeikyoSat 4 1 49396U 21102B 26176.07524204 .00001727 00000-0 11135-3 0 9994 2 49396 97.3665 205.2519 0010346 265.2165 94.7883 15.09533914253913 Z-Sat 1 49399U 21102E 26176.17259677 .00005323 00000-0 26186-3 0 9995 2 49399 97.3327 211.2533 0015507 214.4878 145.5352 15.18317057254651 KOSEN 1 1 49402U 21102H 26176.07141854 .00008206 00000-0 31212-3 0 9995 2 49402 97.3188 218.0754 0014057 172.5195 187.6256 15.26933285255226 HO-113 1 50466U 21131B 26176.17663925 .00000408 00000-0 13963-3 0 9997 2 50466 98.4980 268.5231 0005371 78.1265 282.0526 14.41363656236266 SNUGLITE 2 1 52899U 22065F 26176.16232943 .00000899 00000-0 17938-3 0 9997 2 52899 98.2211 320.9790 0007448 9.3131 350.8208 14.64360830212161 UmKA 1 (RS40S) 1 57172U 23091G 26176.18663339 .00007392 00000-0 33652-3 0 9991 2 57172 97.5051 234.8530 0014329 92.9659 267.3216 15.20901948165227 CubeBel-2 (EU11S) 1 57175U 23091K 26176.16680639 .00016295 00000-0 57373-3 0 9992 2 57175 97.5054 239.4552 0011185 90.4763 269.7758 15.29336095165528 RS-38S 1 57189U 23091Z 26176.15991089 .00020615 00000-0 58426-3 0 9991 2 57189 97.5094 245.8054 0007704 53.3791 306.8160 15.36256949165916 SONATE-2 1 59112U 24043Q 26176.16166257 .00047417 00000-0 60151-3 0 9996 2 59112 97.5532 327.0504 0007286 169.3652 190.7759 15.59278248129132 GRBBeta 1 60237U 24128C 26176.18412963 .00003299 00000-0 23181-3 0 9992 2 60237 61.9880 188.2076 0039614 136.3498 224.0740 15.06681375107471 Curium One 1 60242U 24128H 26176.16926883 .00007566 00000-0 43575-3 0 9997 2 60242 61.9766 177.5011 0039004 132.0879 228.3545 15.12598445107662 ROBUSTA-3A 1 60243U 24128J 26175.14631881 .00003769 00000-0 22904-3 0 9990 2 60243 61.9847 183.6324 0040403 129.5028 230.9651 15.11729530107476 CatSat 1 60246U 24125J 26175.07182397 .00063948 00000-0 79694-3 0 9998 2 60246 97.2088 27.6657 0022441 155.4199 204.8133 15.59399365108469 HYPERVIEW-1G (RS66S) 1 61772U 24199AP 26176.18562265 .00201716 00000-0 11676-2 0 9995 2 61772 97.2857 56.3206 0005663 190.4984 169.6166 15.78003387135938 AO-123 1 61781U 24199AY 26176.17944750 .00008831 00000-0 25546-3 0 9992 2 61781 97.2999 44.7783 0011895 281.2627 78.7280 15.35779467135156 JINJUSat 1B 1 63210U 25052A 26175.19277766 .00015186 00000-0 46798-3 0 9990 2 63210 97.4001 71.9576 0005300 76.2271 283.9561 15.33693102 71176 NUSHSAT 1 1 63211U 25052B 26175.02970252 .00018662 00000-0 53041-3 0 9994 2 63211 97.3976 72.3835 0005109 80.3597 279.8224 15.36203028 71193 TEVEL2-4 1 63213U 25052D 26175.15869639 .00016841 00000-0 50050-3 0 9990 2 63213 97.3899 71.5621 0004948 90.1777 270.0033 15.34822563 71181 TEVEL2-5 1 63214U 25052E 26174.98437719 .00016638 00000-0 49735-3 0 9993 2 63214 97.3894 71.3335 0004880 91.6440 268.5362 15.34639902 71152 TEVEL2-6 1 63215U 25052F 26175.19247918 .00016897 00000-0 50551-3 0 9993 2 63215 97.3902 71.5263 0004712 91.8606 268.3176 15.34612208 71189 TEVEL2-1 1 63217U 25052H 26174.96304379 .00015378 00000-0 46842-3 0 9995 2 63217 97.3870 70.9129 0004942 100.4498 259.7302 15.34061026 71136 TEVEL2-3 1 63218U 25052J 26174.95743908 .00015464 00000-0 47017-3 0 9991 2 63218 97.3876 70.9298 0004852 100.9401 259.2388 15.34118051 71139 TEVEL2-2 1 63219U 25052K 26174.96331783 .00015328 00000-0 46676-3 0 9996 2 63219 97.3875 70.9156 0004967 100.9332 259.2469 15.34070494 71130 TEVEL2-9 1 63237U 25052AD 26175.21077817 .00014542 00000-0 47113-3 0 9994 2 63237 97.3939 70.5233 0008237 111.7825 248.4294 15.32082358 71107 TEVEL2-7 1 63238U 25052AE 26174.66511354 .00012446 00000-0 40771-3 0 9996 2 63238 97.3941 69.8919 0008290 113.4971 246.7143 15.31764216 71016 TEVEL2-8 1 63239U 25052AF 26176.17592529 .00019699 00000-0 64240-3 0 9992 2 63239 97.3940 71.3762 0008412 110.1773 250.0373 15.31804853 71240 SPIRONE 1 66657U 25274H 26175.08852025 .00002057 00000-0 20026-3 0 9998 2 66657 97.7480 104.2810 0012013 359.6233 0.4976 14.93569734 31259 K-HERO 1 66660U 25274L 26174.28747161 .00001913 00000-0 18462-3 0 9998 2 66660 97.7488 103.6569 0014071 5.3342 354.8026 14.93982761 31146 SNUGLITE-III DURI 1 66661U 25274M 26174.54299022 .00001613 00000-0 15630-3 0 9997 2 66661 97.7484 103.9296 0014654 5.2171 354.9199 14.94019114 31189 SAKHACUBE-CHOLBON 1 67290U 25313AU 26176.16567609 .00011196 00000-0 45068-3 0 9994 2 67290 97.3939 251.1012 0008100 335.2853 24.7995 15.25015381 27192 RS95S (QMR-KWT-2) 1 67291U 25313AV 26176.14646918 .00016482 00000-0 63341-3 0 9991 2 67291 97.3932 251.2743 0007533 332.3174 27.7663 15.26477010 27200 Ten-Koh2 1 68261U 25241B 26174.70466335 .00004001 00000-0 17675-3 0 9995 2 68261 51.6688 288.6110 0005581 160.8992 199.2196 15.23964299 15901 JACK-002 1 68417U 26067B 26176.13002064 .00006742 00000-0 32090-3 0 9991 2 68417 97.4563 134.6222 0000786 167.3882 192.7373 15.19479319 13159 DISCO 2 1 68431U 26067R 26174.63785580 .00006680 00000-0 32100-3 0 9994 2 68431 97.4595 133.1368 0002125 31.6445 328.4917 15.19154403 12922 HADES-SA (SpinnyONE) 1 68446U 26067AG 26175.13794182 .00016537 00000-0 78554-3 0 9999 2 68446 97.4407 133.3305 0009051 64.2263 295.9905 15.19264763 12980 PARUS-6U1 1 68456U 26067AS 26175.11191134 .00004975 00000-0 25086-3 0 9991 2 68456 97.4549 133.3687 0007073 53.4995 306.6889 15.17578800 12984 SAL-E 1 68458U 26067AU 26174.64473256 .00006167 00000-0 30785-3 0 9995 2 68458 97.4474 132.8409 0007610 62.2699 297.9306 15.17833271 12910 FSI-SAT 2 1 68792U 26088A 26175.12547340 .00003140 00000-0 21390-3 0 9999 2 68792 97.5073 324.2112 0015992 85.3718 274.9336 15.06882649 9336 OrigamiSat 2 1 68795U 26088D 26175.98784068 .00012886 00000-0 81826-3 0 9993 2 68795 97.5072 325.2114 0015777 56.4148 303.8584 15.08893932 9479 ARICA 2 1 68796U 26088E 26175.19295127 .00003162 00000-0 20627-3 0 9999 2 68796 97.5065 324.4190 0016860 58.4089 301.8783 15.08475098 9352 WASEDA-SAT-ZERO-II 1 68797U 26088F 26174.85600876 .00004487 00000-0 28923-3 0 9991 2 68797 97.5062 324.1007 0016564 59.1472 301.1383 15.08705173 9303 MANGARO-II-Piscus 1 68798U 26088G 26174.91220510 .00003138 00000-0 20257-3 0 9996 2 68798 97.5070 324.1864 0020171 60.9183 299.4062 15.08824043 9314 IO-86 1 40931U 25360.30710720 .00000000 00000-0 12800-3 0 00 2 40931 6.0006 332.5373 0012733 338.8432 8.1437 14.79075515 01 LILIUM-4 1 71922C 26067AC 26089.50133053 -.00014632 00000 0 -74472-3 0 04 2 71922 97.4497 49.1617 0004341 5.9603 355.7042 15.16896692 16